Lid_Strength_Index
0 -0 0 0 1 1 1 1 2 4 4 1 2 -1 -1 -1 -1 -1 -1 1 2 3 3 3 3 2 2 3 2 2 1 0 0 -0 -0 -1 -1 -1
0 0 0 0 -0 0 0 1 1 2 4 1 1 0 -1 -1 -1 -1 -1 1 1 3 3 3 4 4 4 4 4 3 2 1 1 1 1 0 -0 -0
0 1 1 0 1 0 1 1 1 1 3 2 1 -0 -0 -0 -0 -1 -1 -1 -1 2 2 3 3 5 5 5 5 4 2 2 2 2 2 1 0 1
0 1 1 0 1 0 1 1 1 0 2 3 1 1 1 -0 -0 0 -0 -1 -1 1 3 3 4 5 6 6 5 4 4 4 4 3 2 2 1 1
1 1 1 1 1 1 1 1 1 1 1 2 2 1 1 0 0 -0 0 -0 -0 0 3 3 4 4 5 6 6 5 6 6 6 5 4 3 3 3
0 0 1 1 1 1 1 1 1 1 1 2 2 2 1 0 1 2 2 1 1 -0 0 2 2 4 5 6 6 5 6 8 7 6 6 7 6 5
2 2 1 0 1 1 1 1 1 2 2 2 2 2 2 2 2 1 2 2 1 0 1 0 0 0 1 6 4 4 6 8 7 6 7 8 8 7
5 4 3 2 2 3 3 3 1 2 2 3 2 3 2 2 1 2 2 3 4 -0 1 2 0 1 0 -0 3 5 8 7 7 7 8 8 9 9
5 5 4 3 2 1 2 4 4 4 4 1 3 2 2 2 1 2 2 3 3 1 1 3 1 1 -0 -0 6 7 8 8 8 8 8 9 9 9
4 3 3 2 1 1 1 1 1 1 1 1 1 2 2 1 1 1 2 1 1 1 -0 4 1 2 0 1 6 8 8 9 9 8 9 9 10 10
3 3 2 1 3 7 2 2 2 1 2 5 6 5 6 6 3 1 3 4 4 3 1 3 2 2 1 1 1 8 8 9 8 8 9 10 11 11
3 2 3 2 7 8 5 2 4 4 5 5 5 7 5 3 5 1 2 4 4 4 2 3 3 2 3 1 0 1 4 8 9 10 10 10 10 3
3 2 2 6 6 8 10 4 5 4 5 3 4 3 3 3 3 2 1 2 4 4 2 2 2 2 3 3 2 1 0 3 3 7 11 10 10 6
3 4 3 7 6 8 8 10 10 7 4 4 4 4 4 3 3 3 2 2 2 2 0 -0 3 3 3 3 4 2 2 2 3 5 8 10 11 11
3 5 8 8 8 8 11 10 11 3 3 5 4 4 3 2 2 2 1 1 1 2 0 0 1 0 1 2 3 3 3 4 4 6 7 7 8 8
5 3 4 6 7 8 6 5 2 1 1 3 3 2 2 2 2 1 2 2 3 3 2 -1 -0 0 1 2 2 3 3 5 6 7 8 8 8 8
3 2 2 3 3 4 3 2 1 1 1 1 2 2 2 2 2 1 1 2 3 3 3 1 0 1 4 4 3 2 5 7 7 9 10 10 10 10
3 3 3 3 4 3 2 2 1 2 1 1 1 1 2 2 2 2 2 2 3 3 5 4 4 4 4 5 7 4 7 8 8 9 9 12 12 12
2 2 3 3 2 2 2 1 2 1 0 1 1 1 1 2 2 2 2 3 3 3 3 3 4 3 5 8 9 11 10 10 10 12 11 11 14 14
2 2 3 2 2 1 1 1 1 1 1 1 1 1 1 2 2 2 2 3 3 3 3 2 2 3 4 8 12 12 12 10 11 14 15 15 15 14
2 3 2 1 1 1 1 1 1 1 1 1 1 1 1 0 1 2 2 6 5 3 4 3 4 10 7 9 12 13 13 12 11 13 14 15 15 15
2 2 2 0 1 1 1 1 1 1 1 1 1 0 0 0 1 1 2 2 2 3 6 8 6 5 6 11 14 14 14 13 12 12 12 12 13 15
2 1 1 1 1 0 0 1 1 1 0 0 1 0 0 1 0 1 1 2 2 5 6 6 7 8 10 12 14 14 15 14 13 14 13 12 12 12